GFSCGP_con_mucape_000.txt.gz
CAPE
0 0 0 0 0 0 0 0 7 39 35 8 7 100 45 11 0 78 137 188 188 87 52 78 79 173 168 330 621 897 734 779 710 624 841 937 1101 1310 846 777 255 178 142 199
0 0 0 0 0 0 0 0 0 4 12 17 6 19 13 6 49 27 4 28 157 186 40 80 161 284 251 336 653 878 936 676 804 1127 1373 973 1054 950 804 792 406 218 168 324
0 0 0 0 0 0 0 0 0 11 7 18 10 17 33 7 21 18 56 0 43 222 88 121 169 307 207 365 613 843 826 440 654 1278 1375 1063 874 660 1138 809 391 208 161 295
0 0 0 0 0 0 0 0 7 13 4 5 1 40 80 1 30 10 0 21 61 241 202 163 213 336 294 128 384 751 738 630 908 1069 1255 1297 998 746 949 913 671 155 208 237
0 0 0 0 0 0 0 6 19 3 5 1 0 0 0 16 32 38 0 0 111 270 225 158 238 295 103 116 398 687 883 734 814 803 1222 1218 1228 934 928 632 469 452 86 307
0 0 0 0 0 0 0 5 3 1 2 7 0 0 0 8 7 0 0 0 160 229 245 219 292 277 51 16 176 712 948 611 884 936 634 1263 880 894 840 318 517 579 493 252
0 0 0 0 0 5 0 12 6 14 0 10 0 0 13 10 0 0 0 41 306 318 228 237 231 120 25 0 144 343 712 500 473 662 619 1006 977 629 790 589 220 386 343 357
0 0 0 0 0 0 2 14 0 49 1 1 45 37 0 0 0 0 0 37 380 284 254 222 190 87 2 0 33 124 491 383 340 374 523 911 882 705 669 249 177 322 421 385
0 0 0 0 0 0 0 0 0 0 2 3 1 12 19 3 0 0 0 228 517 341 268 238 188 70 32 31 87 259 465 451 287 244 674 502 1021 741 990 926 532 93 402 437
0 5 0 0 1 0 19 0 0 0 0 70 0 15 33 0 0 22 171 376 667 358 190 183 109 114 54 50 145 346 422 265 155 238 723 484 759 935 961 1194 932 202 361 525
0 193 26 38 5 0 0 0 0 3 0 19 41 19 74 61 200 530 329 591 573 259 65 130 56 128 2 0 0 259 331 104 184 126 277 379 759 950 705 623 531 76 123 308
0 35 199 14 0 0 3 0 7 12 78 0 8 92 102 110 39 225 382 457 220 113 69 32 27 103 0 0 1 117 395 7 16 49 163 187 1019 1082 891 754 758 192 295 410
7 57 324 281 228 60 26 0 8 149 298 190 2 58 90 12 19 40 532 261 128 117 57 36 12 39 0 0 0 0 130 0 0 0 14 101 1128 989 994 702 527 299 120 262
106 164 131 323 167 93 95 9 0 0 96 0 21 56 161 7 0 8 532 323 134 111 121 46 47 34 0 0 0 0 35 0 0 0 18 113 981 993 1075 773 751 793 481 128
382 64 229 71 130 65 1 0 0 0 4 1 58 23 39 107 65 72 553 353 118 78 77 136 138 42 0 0 0 0 0 0 0 0 15 146 565 1141 942 744 724 660 534 527
655 154 247 26 49 128 23 0 0 0 0 0 5 60 98 128 65 92 463 371 135 126 79 107 191 114 0 0 0 0 6 0 0 0 0 8 7 253 678 990 406 296 276 518
650 147 197 239 29 87 140 31 0 0 0 0 26 111 75 36 36 133 580 446 437 281 192 158 240 177 0 0 2 19 43 0 0 0 0 0 2 22 644 522 416 314 689 844
299 307 250 274 269 149 17 37 0 4 1 0 4 67 61 57 50 0 138 505 424 459 352 235 326 392 66 0 0 22 30 0 0 0 0 0 0 0 140 279 571 662 627 716
120 239 214 392 239 34 0 1 23 62 71 16 0 0 0 1 10 77 51 51 548 645 621 431 461 631 168 5 0 4 13 0 0 0 0 0 0 1 37 316 658 912 1055 761
100 326 482 334 303 258 90 0 0 10 18 72 53 76 72 8 1 7 139 52 569 547 700 632 614 590 272 167 44 58 32 0 0 0 0 0 0 8 138 710 936 1008 1210 942
111 218 311 248 676 166 56 21 47 0 0 144 111 201 271 174 111 862 680 364 805 654 735 892 671 594 410 261 137 100 30 47 0 0 0 0 0 44 417 1090 886 1060 930 546
206 175 396 447 345 170 16 42 133 505 1379 650 277 249 276 243 347 393 387 301 718 609 584 848 750 783 662 336 200 150 129 137 1 0 0 0 89 0 346 890 706 642 608 1057
21 114 305 243 294 596 464 662 1112 781 523 44 367 199 215 133 116 83 406 682 690 656 663 648 833 1118 909 465 246 198 336 204 8 0 3 60 5 3 334 599 563 362 530 356
11 41 0 1 210 402 187 260 477 289 291 256 248 279 174 180 157 126 106 614 523 554 707 753 864 1117 1082 682 450 349 365 192 22 80 195 133 1 16 200 280 386 93 64 50
0 8 0 0 42 259 210 337 276 259 230 200 128 43 262 331 339 312 295 620 391 539 670 781 795 1229 1260 1037 741 535 453 127 102 246 189 190 18 1 221 190 275 113 99 0
0 0 1 39 24 15 281 104 75 520 226 313 236 297 384 297 452 413 530 596 596 634 780 1067 1194 1407 1253 1265 1053 709 483 234 376 355 207 147 43 0 57 51 156 20 8 0

GFSCGP_con_mucape_003.txt.gz
CAPE
0 0 0 0 0 0 0 0 0 0 0 0 0 1 2 0 0 0 4 4 0 1 0 0 0 0 0 0 49 109 84 83 122 0 143 24 127 32 261 234 85 69 33 31
0 0 0 0 0 0 0 0 0 0 0 0 3 4 10 5 0 17 0 0 0 0 0 0 2 0 0 0 13 183 204 98 25 26 385 94 233 70 176 77 87 66 70 85
0 0 0 0 0 0 0 0 0 0 0 0 0 0 0 0 1 0 0 0 0 0 0 0 8 0 0 0 0 220 104 64 0 111 310 69 34 89 136 110 60 22 37 91
0 0 0 0 0 0 0 0 0 0 0 0 0 0 0 0 0 0 0 0 0 0 0 0 14 8 0 0 43 35 111 0 8 6 114 294 212 105 62 54 57 27 39 54
0 0 0 0 0 0 0 0 0 0 0 0 0 0 0 0 0 0 0 0 0 0 0 0 25 18 0 0 0 86 0 0 93 71 75 363 268 181 101 3 24 42 67 146
0 0 0 0 0 0 0 0 0 0 1 0 0 0 0 0 0 0 0 0 0 0 0 0 22 20 0 0 0 0 25 16 112 310 95 150 47 124 28 16 20 28 72 82
0 0 0 0 0 0 0 0 0 0 0 0 0 0 0 0 0 0 0 0 0 0 0 1 41 3 0 0 0 0 28 0 0 41 47 62 47 77 4 0 11 31 42 48
0 0 0 0 0 0 0 0 0 0 0 0 0 0 0 0 0 0 0 0 0 2 0 0 20 0 1 0 0 0 10 0 0 0 3 53 87 20 0 0 2 19 32 32
0 0 0 0 0 0 0 0 0 0 0 0 0 0 0 0 0 0 0 3 0 0 13 26 0 0 0 0 0 0 8 0 0 0 0 106 71 81 49 21 0 21 23 54
0 0 0 0 0 0 0 0 0 0 0 0 0 0 0 0 0 0 2 17 31 64 62 0 0 0 0 0 0 0 0 0 0 0 0 118 246 178 87 97 67 60 39 21
0 0 0 0 0 0 0 6 1 0 0 0 0 0 0 0 0 2 39 52 53 118 23 0 0 0 0 0 0 0 0 0 0 0 0 27 381 151 238 143 29 40 14 63
0 0 0 0 0 0 0 0 0 0 0 0 0 0 0 6 7 49 113 122 130 83 0 0 0 0 0 0 0 0 0 0 0 0 0 2 243 212 227 295 69 129 123 58
0 0 0 0 0 0 0 0 0 0 0 0 0 0 0 0 147 199 200 149 61 2 0 0 0 0 0 0 0 0 0 0 0 0 0 0 174 207 162 212 96 73 56 116
0 0 0 0 0 0 0 0 0 0 0 0 0 0 0 0 56 171 127 82 1 0 0 0 0 0 0 0 0 0 0 0 0 0 0 56 72 185 178 95 124 36 46 95
0 0 0 0 34 23 0 0 0 0 0 0 0 4 0 0 0 105 85 98 23 7 0 0 0 0 0 0 0 0 0 0 0 0 0 0 78 45 167 109 132 10 42 126
1 0 0 0 4 55 12 0 0 0 0 0 0 0 0 0 1 17 96 67 49 15 0 0 0 0 0 0 0 0 0 0 0 0 0 0 33 455 43 60 79 38 154 72
0 0 0 0 2 66 34 0 0 0 0 0 0 0 8 9 0 69 40 49 55 92 0 0 0 0 0 0 0 0 0 0 0 0 0 0 7 72 58 0 0 95 0 0
0 0 0 0 1 62 2 0 0 0 0 0 0 0 0 6 9 106 50 60 90 86 9 0 0 0 0 0 0 0 0 0 0 0 0 0 0 182 88 5 0 18 1 0
0 4 17 0 0 55 6 16 0 0 0 0 0 0 0 0 86 168 117 113 147 117 39 0 0 0 0 0 0 0 0 0 0 0 0 0 0 12 147 79 0 13 7 0
0 0 11 2 6 0 7 0 17 0 0 0 0 0 11 0 0 0 36 161 219 81 38 13 29 8 0 0 0 0 0 0 0 0 0 0 0 0 5 196 23 124 41 93
19 77 124 31 40 71 20 38 22 9 0 15 0 0 0 0 0 0 1 159 198 161 71 79 92 20 13 5 0 0 0 0 0 0 0 0 0 0 6 389 358 205 386 104
5 28 84 79 148 162 163 67 25 4 71 44 10 26 0 69 30 89 159 119 106 308 170 154 109 69 60 21 13 0 0 0 0 0 0 0 0 0 461 561 517 317 458 262
0 22 24 10 209 149 102 112 442 131 189 52 226 103 10 33 1 20 102 204 161 299 317 187 125 100 119 76 46 0 0 0 0 0 0 0 0 43 564 435 451 279 209 407
10 25 23 0 55 48 38 66 81 38 245 259 301 114 0 0 0 2 311 320 239 302 427 236 285 251 220 164 92 16 0 1 0 0 0 0 0 178 432 315 311 179 79 72
0 5 30 0 19 22 35 68 0 29 58 36 64 71 0 0 0 0 345 318 335 411 443 483 519 322 198 132 123 128 17 0 0 0 0 0 0 126 236 198 161 107 29 4
0 37 36 0 0 19 20 67 0 22 125 87 47 60 96 21 0 0 231 221 218 179 520 590 606 545 358 264 305 328 262 77 0 2 0 0 0 15 66 147 176 82 45 10

GFSCGP_con_mucape_006.txt.gz
CAPE
0 0 0 0 0 0 0 0 0 0 0 0 0 0 0 0 0 0 0 1 0 0 1 10 19 23 0 0 7 22 7 44 84 94 21 36 23 41 13 156 67 56 33 21
0 0 0 0 0 0 0 0 0 0 0 0 0 0 0 0 2 2 0 0 0 0 3 6 9 0 0 0 8 35 58 45 108 0 50 158 52 32 61 98 70 69 66 89
0 0 0 0 0 0 0 0 0 0 0 0 0 0 0 0 0 0 0 0 0 0 1 14 1 0 0 0 2 80 111 95 19 36 25 25 6 26 26 62 42 32 18 30
0 0 0 0 0 0 0 0 0 0 0 0 0 0 0 0 0 0 0 0 0 0 6 1 0 0 0 0 0 90 60 45 0 8 3 181 146 87 50 1 5 13 12 19
0 0 0 0 0 0 0 0 0 0 0 0 0 0 0 0 0 0 0 0 0 0 0 0 0 0 0 0 0 8 54 23 1 4 17 211 30 50 2 0 0 39 50 75
0 0 0 0 0 0 0 0 0 0 0 0 0 0 0 0 0 0 0 0 0 0 0 0 0 0 0 0 0 35 0 5 44 81 15 48 6 0 0 0 0 11 23 74
0 0 0 0 0 0 0 0 0 0 0 0 0 0 0 0 0 0 0 0 0 0 0 0 0 0 0 0 0 0 0 3 8 13 6 2 36 0 0 0 0 0 13 47
0 0 0 0 0 0 0 0 0 0 0 0 0 0 0 0 0 0 0 0 0 0 0 0 0 0 0 0 0 0 3 0 0 0 1 18 6 0 0 0 15 0 0 0
0 0 0 0 0 0 0 0 0 0 0 0 0 0 0 0 0 0 0 0 0 0 0 0 1 0 0 0 0 0 0 0 0 0 3 37 5 1 11 5 4 0 0 4
0 0 0 0 0 0 0 0 0 0 0 0 0 0 0 0 0 0 0 0 0 0 0 8 0 0 0 0 0 0 0 0 0 0 0 47 33 71 61 0 19 0 3 23
0 0 0 0 0 0 0 0 0 0 0 0 0 0 0 0 0 0 0 0 0 0 4 3 0 0 0 0 0 0 0 0 0 0 0 29 106 130 121 15 1 22 7 42
0 0 0 0 0 0 0 0 0 0 0 0 0 0 0 0 0 0 0 0 0 2 15 0 0 0 0 0 0 0 0 0 0 0 0 25 110 115 78 7 0 0 10 10
0 0 0 0 0 0 0 0 0 0 0 0 0 0 0 0 0 0 1 11 0 40 0 0 0 0 0 0 0 0 0 0 0 0 0 69 65 60 152 14 0 25 20 80
0 0 0 0 0 0 0 0 0 0 0 0 0 0 0 0 0 0 32 54 6 5 0 0 0 0 0 0 0 0 0 0 0 0 0 63 49 15 55 1 0 10 59 121
0 0 0 0 0 0 0 0 0 0 0 0 0 0 0 9 17 42 84 52 4 0 0 0 0 0 0 0 0 0 0 0 0 0 6 17 69 42 58 7 3 19 55 127
0 0 0 0 0 0 0 0 0 0 0 0 0 0 0 0 31 104 73 40 7 0 0 0 0 0 0 0 0 0 0 0 0 0 0 5 0 26 42 0 6 38 76 123
0 0 0 0 0 0 0 0 0 0 0 0 0 0 0 0 28 78 72 34 23 5 0 0 0 0 0 0 0 0 0 0 0 0 0 0 19 53 29 3 3 15 3 67
0 0 0 0 0 0 0 0 0 0 0 0 0 0 0 0 0 55 54 53 41 6 1 0 0 0 0 0 0 0 0 0 0 0 0 0 24 6 0 0 0 2 1 3
0 0 0 0 0 0 0 0 0 0 0 0 0 0 0 0 0 0 24 58 47 30 14 0 0 0 0 0 0 0 0 0 0 0 0 0 9 23 2 3 18 0 0 0
0 0 0 0 0 0 0 15 1 19 0 0 0 0 0 0 0 4 3 55 56 83 16 0 0 0 0 0 0 0 0 0 0 0 0 0 0 97 87 3 0 0 0 0
2 0 0 3 0 5 9 40 21 9 0 23 0 0 0 0 0 8 29 49 89 96 54 3 0 0 0 0 0 0 0 0 0 0 0 0 0 9 104 28 0 0 0 0
12 16 1 34 62 52 0 76 166 0 3 0 4 0 0 0 0 8 26 42 107 117 69 15 6 1 0 0 0 0 0 0 0 0 0 0 0 0 10 39 0 0 5 11
41 58 36 26 26 3 34 84 98 35 36 4 0 0 0 0 0 0 0 90 102 161 84 31 6 15 6 5 4 0 0 0 0 0 0 0 0 0 10 53 1 14 22 7
0 66 55 29 40 19 92 69 105 96 47 18 7 0 0 0 0 0 0 0 94 179 79 54 26 27 44 9 12 8 0 0 0 0 0 0 0 0 63 81 33 63 178 184
0 35 82 50 37 29 18 14 95 116 126 34 5 2 1 0 2 104 16 0 56 105 102 87 64 89 106 70 40 30 0 0 0 0 0 0 0 1 86 168 155 150 146 161
0 0 90 80 50 47 13 21 45 89 88 24 20 23 0 0 0 2 95 12 23 114 164 142 129 146 152 109 98 69 22 0 0 0 0 0 0 0 63 149 148 145 86 45

GFSCGP_con_mucape_009.txt.gz
CAPE
0 0 0 0 0 0 0 0 0 0 0 0 0 0 0 0 0 0 0 0 0 0 0 6 7 27 18 11 0 0 0 1 12 110 3 98 50 33 6 4 79 64 27 24
0 0 0 0 0 0 0 0 0 0 0 0 0 0 0 0 0 0 0 0 0 0 0 6 13 19 8 0 0 0 0 9 55 48 0 73 84 16 9 21 60 61 74 47
0 0 0 0 0 0 0 0 0 0 0 0 0 0 0 0 0 0 0 0 0 0 2 9 13 19 0 0 0 0 1 19 73 1 22 22 28 55 31 9 30 50 33 26
0 0 0 0 0 0 0 0 0 0 0 0 0 0 0 0 0 0 0 0 0 0 1 4 13 0 0 0 0 5 42 57 1 2 0 58 165 20 24 8 6 9 10 38
0 0 0 0 0 0 0 1 0 0 0 0 0 0 0 0 0 0 0 0 0 0 0 0 0 0 0 0 0 21 27 8 0 0 23 133 27 0 3 5 0 6 24 39
0 0 0 0 0 0 0 0 0 0 0 0 0 0 0 0 0 0 0 0 0 0 0 0 0 0 0 0 0 1 31 0 0 7 12 22 6 0 0 0 0 1 7 68
0 0 0 0 0 0 0 0 0 0 0 0 0 0 0 0 0 0 0 0 0 0 0 0 0 0 0 0 0 0 0 0 5 53 9 0 4 0 0 3 4 0 16 46
0 0 0 0 0 0 0 0 0 0 0 0 0 0 0 0 0 0 0 0 0 0 0 0 0 0 0 0 0 0 0 0 0 0 1 0 0 0 3 2 3 0 0 21
0 0 0 0 0 0 0 0 0 0 0 0 0 0 0 0 0 0 0 0 0 0 0 0 0 0 0 0 0 0 0 0 0 0 0 0 3 19 37 0 0 0 0 0
0 0 0 0 0 0 0 0 0 0 0 0 0 0 0 0 0 0 0 0 0 0 0 0 0 0 0 0 0 0 0 0 0 0 0 4 13 66 39 0 0 0 0 11
0 0 0 0 0 0 0 0 0 0 0 0 0 0 0 0 0 0 0 1 0 2 0 0 0 0 0 0 0 0 0 0 0 0 0 5 28 78 53 6 0 0 0 0
0 0 0 0 0 0 0 0 0 0 0 0 0 0 0 0 0 0 0 0 7 0 0 0 0 0 0 0 0 0 0 0 0 0 0 9 56 73 36 0 0 0 0 9
0 0 0 0 0 0 0 0 0 0 0 0 0 0 0 0 0 0 0 1 0 0 0 0 0 0 0 0 0 0 0 0 0 0 0 18 41 16 16 0 1 8 0 22
0 0 0 0 0 0 0 0 0 0 0 0 0 0 0 0 0 0 0 4 3 0 0 0 0 0 0 0 0 0 0 0 0 0 0 14 0 13 6 0 5 0 11 37
0 0 0 0 0 0 0 0 0 0 0 0 0 0 0 0 0 0 0 2 13 0 0 0 0 0 0 0 0 0 0 0 0 0 0 5 0 6 9 0 0 5 51 51
0 0 0 0 0 0 0 0 0 0 0 0 0 0 0 0 0 0 2 6 7 0 0 0 0 0 0 0 0 0 0 0 0 0 6 2 0 7 0 0 0 9 48 97
0 0 0 0 0 0 0 0 0 0 0 0 0 0 0 0 0 0 5 25 13 0 0 0 0 0 0 0 0 0 0 0 0 0 0 0 0 11 0 0 5 28 57 64
0 0 0 0 0 0 0 0 0 0 0 0 0 0 0 0 0 2 19 45 21 0 0 0 0 0 0 0 0 0 0 0 0 0 0 0 1 24 0 0 3 0 0 33
0 0 0 0 0 0 0 0 0 0 0 0 0 0 0 0 0 9 42 81 18 2 3 0 0 0 0 0 0 0 0 0 0 0 0 0 16 0 0 0 0 0 0 0
0 0 0 0 0 0 0 0 0 0 0 0 0 0 0 0 0 3 35 82 29 3 0 0 0 0 0 0 0 0 0 0 0 0 0 0 0 0 0 0 0 0 0 0
1 2 0 0 0 0 0 0 0 0 0 0 0 0 0 0 0 0 0 12 45 15 10 0 0 0 0 0 0 0 0 0 0 0 0 0 0 20 1 5 0 0 0 0
0 0 1 1 0 7 0 0 0 0 0 0 0 0 0 0 0 0 0 0 0 28 19 0 0 0 0 0 0 0 0 0 0 0 0 0 0 72 54 44 0 0 0 0
0 2 6 6 10 0 0 0 0 2 0 0 0 0 0 0 0 0 0 0 0 36 19 2 0 0 0 0 0 0 0 0 0 0 0 0 0 1 52 20 0 0 0 0
0 0 5 28 40 0 0 0 3 4 0 0 0 0 0 0 0 0 0 0 0 50 21 9 0 0 0 0 0 0 0 0 0 0 0 0 0 0 0 44 4 0 0 0
0 0 6 55 54 32 15 0 3 0 0 0 0 0 0 0 0 0 0 0 0 22 39 28 0 0 0 0 0 0 0 0 0 0 0 0 0 0 0 0 15 0 0 0
0 0 32 125 104 25 20 39 23 13 11 0 0 0 0 0 0 0 0 0 0 3 57 44 12 0 0 6 1 0 0 0 0 0 0 0 0 0 0 0 0 0 0 3

GFSCGP_con_mucape_015.txt.gz
CAPE
0 0 0 0 0 0 0 0 0 0 0 0 0 0 0 0 0 0 0 0 0 0 0 0 0 0 0 0 0 15 21 66 61 25 31 123 273 373 348 414 398 391 482 354
0 0 0 0 0 0 0 0 0 0 0 0 0 0 0 0 0 0 0 0 0 0 0 0 0 0 0 0 2 8 41 49 53 72 130 206 373 455 391 406 457 469 522 567
0 0 0 0 0 0 0 0 0 0 0 0 0 0 0 0 0 0 0 0 0 0 0 0 0 0 0 0 1 2 22 40 62 103 139 227 225 345 443 383 334 284 311 358
0 0 0 0 0 0 0 0 0 0 0 0 0 0 0 0 0 0 0 0 0 0 0 0 0 0 0 0 0 0 12 57 92 149 209 389 557 576 290 303 231 224 93 193
0 0 0 0 0 0 0 0 0 0 0 0 0 0 0 0 0 0 0 0 0 0 0 0 0 0 0 0 0 0 32 102 133 131 190 458 740 249 242 191 250 272 268 221
0 0 0 0 0 0 0 0 0 0 0 0 0 0 0 0 0 0 0 0 0 0 0 0 0 0 0 0 0 4 77 152 90 116 193 542 524 243 106 202 245 251 278 392
0 0 0 0 0 0 0 0 0 0 0 0 0 0 0 0 0 0 0 0 0 0 0 0 0 0 0 0 0 16 107 53 70 69 133 279 264 133 94 115 180 265 328 475
0 0 0 0 0 0 0 0 0 0 0 0 0 0 0 0 0 0 0 0 0 0 0 0 0 0 0 0 10 21 87 52 46 122 261 154 165 7 5 65 145 159 304 443
0 0 0 0 0 0 0 0 0 0 0 0 0 0 0 0 0 0 0 0 0 0 0 0 0 0 0 0 39 76 77 45 91 53 146 117 201 0 73 139 85 162 307 355
0 0 0 0 0 0 0 0 0 0 0 0 0 0 0 0 0 0 0 0 0 0 0 0 0 0 0 0 32 56 20 18 49 0 167 148 184 2 77 102 118 190 299 333
0 0 0 0 0 0 0 0 0 0 0 0 0 0 0 0 0 11 0 0 0 0 0 0 0 0 0 0 0 0 0 0 0 0 95 210 217 93 58 84 64 115 212 242
0 0 0 0 0 0 0 0 0 0 0 0 0 0 0 0 0 0 0 0 0 0 0 0 0 0 0 0 0 0 0 0 0 19 4 129 320 248 117 73 56 94 163 182
0 0 0 0 0 0 0 0 0 0 0 0 0 0 0 0 0 0 0 0 0 0 0 0 0 0 0 0 0 0 0 1 0 0 2 441 435 345 242 38 65 83 235 276
0 0 0 0 0 0 0 0 0 0 0 0 0 0 0 0 0 0 0 0 0 0 0 0 0 0 0 0 0 0 0 0 0 0 30 497 426 300 99 59 167 113 282 355
0 0 0 0 0 0 0 0 0 0 0 0 0 0 0 0 0 0 0 0 0 0 0 0 0 0 0 0 0 0 0 0 0 0 238 371 341 178 70 165 102 267 313 328
0 0 0 0 0 0 0 0 0 0 0 0 0 0 0 0 0 0 0 0 0 0 0 0 0 0 0 0 0 0 0 0 0 19 236 113 224 53 126 198 270 327 283 368
0 0 0 0 0 0 0 0 0 0 0 0 0 0 0 0 0 0 0 0 0 0 1 0 0 0 0 0 0 0 0 0 0 15 161 131 254 55 103 179 265 406 420 488
0 0 0 0 0 0 0 0 0 0 0 0 0 0 0 0 0 0 0 0 1 0 4 0 0 0 0 0 0 0 0 0 0 1 143 153 161 29 138 217 259 229 444 499
0 0 0 0 0 0 0 0 0 0 0 0 0 0 0 0 0 0 0 0 14 71 11 3 0 0 0 0 0 0 0 0 0 0 96 108 289 65 205 306 149 129 313 255
0 0 0 0 0 0 0 0 0 0 0 0 0 0 0 0 0 0 0 0 0 7 10 1 0 0 0 0 0 0 0 0 0 0 2 21 168 346 215 320 24 23 135 131
0 0 0 0 0 0 0 0 0 0 0 0 0 0 0 0 0 0 0 0 0 0 10 1 0 0 0 0 0 0 0 0 0 0 0 1 157 449 266 265 5 2 28 5
0 0 0 0 0 0 0 0 0 0 0 0 0 0 0 0 0 0 0 0 0 0 0 0 0 0 0 0 0 0 0 0 0 0 0 0 137 189 172 245 7 1 77 21
0 0 0 0 0 0 0 0 0 0 0 0 0 0 0 0 0 0 0 0 0 0 0 0 4 0 0 0 0 0 0 0 0 0 0 0 46 50 125 202 56 0 57 20
0 0 0 2 0 0 0 0 0 0 0 0 0 0 0 0 0 0 0 0 0 0 0 0 0 0 0 0 0 0 0 0 0 0 0 0 0 66 49 80 52 0 0 0
0 0 0 0 0 0 0 0 0 0 0 0 0 0 0 0 0 0 0 0 0 0 0 0 0 0 0 0 0 0 0 0 0 0 0 0 0 16 79 102 52 8 2 0
0 0 0 0 0 0 0 0 0 0 0 0 0 0 0 0 0 0 0 0 0 0 0 0 3 1 0 0 0 0 0 0 0 0 0 0 0 0 80 95 0 0 1 0

GFSCGP_con_mucape_021.txt.gz
CAPE
0 0 0 0 0 0 0 0 0 0 0 9 0 1 34 0 0 0 0 5 0 0 0 1 2 6 172 222 529 1129 1136 2533 2434 1859 1259 810 483 612 467 533 658 736 864 1364
0 0 0 0 0 0 0 0 0 0 0 18 12 16 9 2 3 0 0 0 0 0 0 0 0 382 300 475 728 808 963 1891 2170 1478 1326 723 718 432 453 492 730 823 878 1110
0 0 0 0 0 0 0 0 0 0 0 13 6 0 0 0 0 0 0 0 0 0 0 0 0 515 444 567 700 822 1045 1671 1749 1611 1188 654 550 506 613 346 529 923 872 1080
0 0 0 0 0 0 0 0 0 0 0 0 0 0 0 0 0 0 0 0 0 0 0 0 5 583 562 597 686 804 1161 1175 914 1429 1248 1488 688 371 279 570 356 734 755 660
0 0 0 0 0 0 0 0 0 0 0 0 0 0 0 0 0 0 0 0 0 0 0 0 249 563 579 563 680 904 997 835 1035 878 1301 603 563 224 333 222 610 1024 875 798
0 0 0 0 0 0 0 0 0 2 0 0 0 0 0 0 0 0 0 0 0 0 0 61 536 565 517 501 675 797 829 806 782 556 591 753 613 483 400 623 801 1010 1283 1001
0 0 0 0 0 0 0 0 0 0 0 0 0 0 0 0 0 0 0 0 0 24 139 393 528 429 450 564 644 710 722 804 618 539 508 554 712 827 869 740 1024 860 789 1140
0 0 0 0 0 0 0 0 0 0 0 0 0 0 0 0 0 0 0 0 32 216 356 459 430 466 487 517 570 516 627 560 447 409 389 594 837 819 945 919 647 1327 680 1029
11 0 0 0 0 0 0 0 0 0 1 0 3 4 0 0 0 0 0 0 91 371 493 489 479 485 484 512 510 594 538 428 369 249 552 634 852 620 885 697 517 876 749 521
47 0 0 3 0 0 1 0 1 0 0 5 11 32 60 0 0 0 11 0 137 554 534 512 506 506 488 482 547 551 428 362 183 409 504 599 758 739 650 559 411 940 395 233
20 112 47 4 28 0 0 1 0 0 0 10 20 36 13 11 0 1 46 113 468 604 505 524 459 456 482 482 500 536 338 153 218 393 392 1111 818 722 568 459 224 577 414 270
152 118 140 66 22 1 0 3 0 0 0 0 49 49 0 0 9 6 90 401 622 549 422 425 413 445 472 519 530 427 156 60 205 272 373 465 740 728 659 821 671 317 395 150
136 136 120 132 96 12 15 6 3 0 12 15 38 53 0 2 76 98 234 418 508 413 366 388 406 430 475 545 459 146 47 22 106 238 298 965 712 805 664 851 838 230 98 83
37 97 74 78 141 24 24 19 13 4 21 29 9 17 0 12 45 115 332 477 386 366 360 395 384 406 485 436 210 32 8 18 94 176 215 614 793 752 585 836 729 149 110 146
47 76 4 7 20 48 54 32 24 12 17 44 10 3 1 82 34 151 333 326 391 390 334 382 356 401 440 289 102 6 8 6 47 79 382 1042 719 771 475 754 687 690 277 588
50 138 27 0 40 31 67 11 29 40 26 7 23 0 2 35 0 0 11 210 403 399 343 386 350 399 381 187 32 0 15 22 33 122 552 699 448 311 628 557 674 770 744 698
2 162 94 0 0 22 75 52 25 12 35 7 2 0 0 3 0 10 16 41 283 426 400 422 407 449 391 136 13 0 5 14 43 188 497 394 343 220 301 304 314 489 927 977
0 42 22 27 5 87 46 36 17 23 21 13 2 0 2 6 0 0 0 43 46 396 461 492 466 542 429 93 4 0 6 0 41 254 417 386 345 370 314 298 357 609 1189 687
0 9 0 24 62 204 55 87 36 55 44 43 9 9 20 0 0 0 24 49 263 472 583 625 576 627 461 46 1 0 8 0 31 225 448 390 420 538 795 710 788 1221 1117 1243
0 20 0 0 177 100 41 37 7 78 129 1 0 0 0 0 0 117 16 13 126 640 656 726 657 663 476 55 0 0 8 0 20 131 419 419 431 516 796 977 951 1030 1143 1012
49 47 61 40 214 172 16 7 13 23 15 0 0 0 0 0 4 0 0 3 29 299 675 800 760 757 556 65 0 0 5 0 1 52 392 498 631 642 933 801 1130 1212 965 1175
16 55 145 146 189 100 0 14 87 12 11 0 5 1 0 0 0 0 4 6 56 160 624 813 846 851 619 75 4 0 0 0 0 14 284 573 670 648 830 838 783 994 1301 1119
125 0 21 13 24 8 0 0 0 1 13 0 1 0 0 0 0 7 71 117 202 173 485 713 899 932 690 119 13 0 0 0 0 1 222 542 638 573 894 735 683 749 972 768
0 0 0 5 0 0 0 0 0 0 0 9 0 0 0 0 0 59 185 280 324 441 320 647 857 959 793 209 19 0 0 0 0 0 150 486 634 610 688 534 251 352 376 379
0 0 0 0 1 0 0 0 0 0 0 0 0 0 0 0 1 5 161 529 613 559 464 562 783 990 883 341 52 0 0 0 4 35 55 214 578 589 599 462 79 30 360 105
0 0 0 0 0 0 0 0 0 0 0 0 0 0 1 0 0 0 17 284 754 810 679 440 756 989 939 480 121 0 0 0 18 225 69 67 184 551 490 368 330 19 6 0

GFSCGP_con_mucape_024.txt.gz
CAPE
0 0 0 0 0 0 0 0 0 0 0 0 35 11 0 0 4 4 21 0 0 0 101 132 37 292 737 937 1274 2945 3288 4004 2863 2694 2352 2107 1469 1215 1069 1283 1465 1446 1509 1366
0 0 0 0 0 0 0 0 0 0 0 1 28 15 0 0 3 18 15 2 2 4 2 42 203 369 1394 1440 1628 2603 2798 2893 2862 2646 2240 1788 1290 839 849 1102 1487 1513 1321 1526
0 0 0 0 0 0 0 0 0 0 0 0 17 3 0 0 0 1 0 0 0 0 0 0 55 1006 1259 1471 1783 1866 2101 2843 2701 2659 2133 2483 1293 1824 1315 1665 1335 1418 1280 1118
0 0 0 0 0 0 0 0 0 0 0 0 1 0 0 0 0 0 0 0 0 0 0 0 125 1241 1247 1148 1283 1607 2172 2451 2448 2156 1688 1503 990 1093 1301 1099 1275 1315 1449 1018
0 0 0 0 0 0 0 0 0 0 0 9 0 0 0 0 0 0 0 0 0 0 0 19 132 1247 1038 1121 1278 1607 2046 1995 1990 1728 1494 1617 1620 1514 1697 1294 1804 1554 1542 1078
0 0 0 0 0 0 0 0 0 0 0 17 0 0 0 0 0 0 0 0 3 0 1 6 914 1012 1015 1031 1240 1645 1593 1702 1383 1755 2061 1640 1573 1675 1672 1252 1587 1418 1534 1393
0 0 0 0 0 0 0 7 0 0 0 0 0 0 0 0 0 0 0 0 0 4 20 971 986 932 925 1033 1286 1370 1343 1299 1322 1530 1413 1783 1725 1241 1325 1332 1344 1102 1227 1186
0 0 0 0 0 0 0 0 0 0 0 0 0 0 0 0 0 0 0 0 0 163 785 935 919 855 866 1085 1141 1072 1288 1215 1123 1131 1180 1702 1856 1282 1521 1392 1282 1021 959 1144
0 0 2 0 0 0 0 0 0 0 0 0 0 0 0 0 0 0 0 0 270 560 927 900 882 837 969 993 1100 1129 1108 1013 930 1008 1480 1633 1606 1412 1258 1446 1189 1088 1118 794
1 0 0 4 0 0 0 0 0 3 0 6 0 2 9 18 19 1 0 26 649 927 829 791 772 968 908 1008 1173 1139 1011 857 898 808 1290 1221 629 1228 1174 657 965 848 747 402
5 48 0 0 33 0 0 0 0 1 0 0 0 0 469 184 11 12 29 2 800 832 755 749 793 903 937 893 893 1000 871 726 627 997 1202 1281 1201 1117 545 699 503 841 598 193
130 57 24 1 40 0 0 0 3 0 0 0 1 1 176 178 14 82 90 288 816 779 701 712 762 746 778 854 840 878 672 348 649 676 1031 1224 1267 1137 855 717 526 758 692 632
62 144 52 24 48 68 19 9 10 40 97 13 0 2 62 1 91 21 421 788 789 705 665 640 669 752 754 829 790 583 380 304 376 426 939 843 1174 1062 918 729 527 572 924 521
12 34 26 109 74 73 82 26 0 54 6 5 12 85 49 26 65 277 789 918 707 611 691 612 682 743 738 810 608 223 145 255 292 452 788 1207 1410 778 853 612 848 689 403 198
9 54 60 0 3 33 21 69 1 16 1 2 7 31 61 181 195 635 846 692 598 549 573 718 697 730 830 756 369 90 103 169 342 552 1146 1078 1238 850 631 549 615 568 691 388
56 43 51 0 2 25 39 16 38 8 13 11 8 125 376 208 198 400 630 509 504 530 572 581 671 765 791 552 133 63 158 151 300 860 929 941 676 613 638 668 655 705 691 755
43 54 47 0 0 0 23 4 20 20 44 39 29 322 382 61 65 371 475 587 615 574 544 637 686 800 753 407 177 132 175 134 238 744 705 742 639 679 665 656 629 898 820 529
0 23 56 0 0 0 35 33 22 42 63 61 56 236 269 76 40 15 5 184 684 614 718 680 774 1004 829 322 93 148 116 83 165 732 502 478 377 323 367 481 420 757 781 712
0 0 31 0 0 44 95 164 83 73 107 39 95 40 11 5 128 144 37 34 240 860 979 849 959 1117 815 323 109 66 65 42 176 467 479 369 534 502 567 860 776 684 588 457
21 9 74 0 23 259 126 39 1 20 101 0 105 80 59 9 37 25 18 21 182 502 1261 957 1012 1166 828 433 131 127 71 28 199 364 518 489 564 776 969 1190 1223 988 912 1108
38 69 0 0 0 36 27 14 1 52 51 34 31 21 0 0 12 0 7 45 168 407 835 1207 1186 1163 928 478 174 119 84 31 162 340 532 723 923 838 1217 1504 1204 1362 1068 1012
16 120 42 3 0 20 49 26 15 9 86 9 2 0 0 0 0 11 24 45 121 409 684 1167 1241 1376 879 432 162 122 218 47 93 352 577 871 1211 813 1121 1491 1521 1317 1185 844
11 2 17 28 1 6 7 0 8 0 0 0 0 0 0 0 0 31 100 143 195 409 683 976 1261 1444 899 422 145 203 336 62 69 313 964 972 954 1033 1212 1277 1411 1057 1095 901
0 0 0 8 0 0 0 0 0 8 0 0 1 0 0 0 0 21 171 398 349 480 524 870 1337 1415 1029 513 240 295 171 20 42 465 1111 971 878 1187 1044 788 1100 897 894 824
0 0 0 0 0 0 3 0 0 0 0 0 5 7 0 0 0 0 56 370 700 569 585 791 1318 1449 1203 614 318 218 60 12 176 507 887 1079 880 1052 1075 696 249 592 500 389
0 0 0 0 0 0 0 0 6 0 0 0 0 4 6 0 0 0 1 105 550 779 831 694 1225 1622 1282 679 387 132 56 15 377 414 638 774 777 977 688 480 41 0 15 34

GFSCGP_con_mucape_030.txt.gz
CAPE
0 0 0 0 0 0 0 0 0 0 0 0 0 0 0 0 0 0 0 0 0 0 0 0 0 0 0 0 0 1 595 1122 1279 1257 1574 1501 1347 1372 1285 1190 1082 938 887 373
0 0 0 0 0 0 0 0 0 0 0 0 0 0 0 0 0 0 0 0 0 0 0 0 0 0 0 12 194 121 692 1368 1558 1546 1362 1536 1466 1327 1221 1121 1068 905 562 502
0 0 0 0 0 0 0 0 0 0 0 0 0 0 0 0 0 0 0 0 0 0 0 0 0 0 0 61 505 783 1256 1653 1811 1811 1671 1516 1436 1338 1258 1249 1194 755 379 521
0 0 0 0 0 0 0 0 0 0 0 0 0 0 0 0 0 0 0 0 0 0 0 0 0 0 18 255 862 1578 1663 1854 1944 1931 1862 1644 1473 1371 1304 1183 639 383 660 606
0 0 0 0 0 0 0 0 0 0 0 0 0 0 0 0 0 0 0 0 0 0 0 0 0 0 136 801 1482 1943 1917 2023 2061 1991 1852 1663 1539 1410 809 290 268 392 397 406
0 0 0 0 0 0 0 0 0 0 0 0 0 0 0 0 0 0 0 0 0 0 0 0 0 183 635 897 1290 2059 2131 2125 2047 1857 1657 1440 1005 440 367 318 341 434 483 479
31 16 0 0 0 0 0 0 0 0 0 0 0 0 0 0 0 0 0 0 0 0 0 165 287 482 684 989 1278 1616 1791 1770 1741 1496 1240 963 600 246 258 276 268 240 273 235
0 0 0 12 1 0 0 0 0 0 0 0 0 0 0 0 0 0 0 0 0 0 18 272 407 618 869 1176 1376 1475 1394 1309 1253 1086 642 270 277 278 278 301 234 224 205 177
0 0 5 0 2 4 0 0 0 0 0 0 0 0 0 0 0 0 0 0 29 180 303 398 527 806 985 1112 1179 1243 1154 988 740 301 248 214 234 293 200 121 71 22 130 45
0 0 0 0 0 19 0 0 0 0 0 0 0 0 0 0 0 0 0 1 287 351 412 505 655 815 923 941 905 855 751 497 287 255 217 216 250 225 181 104 28 71 0 42
0 0 0 0 0 0 0 0 0 0 0 0 0 0 0 0 0 0 0 34 388 434 495 570 676 766 780 715 730 522 349 224 198 225 227 278 159 188 78 4 5 42 22 92
10 1 0 0 0 0 6 0 0 0 0 0 0 0 0 0 0 0 0 248 464 496 497 560 641 646 567 733 571 366 276 150 200 213 161 191 192 148 28 16 0 0 0 42
14 0 0 0 0 2 7 6 13 0 0 0 0 0 0 8 0 12 185 434 469 433 462 574 589 556 619 653 482 356 249 128 106 228 220 164 184 118 40 0 0 0 0 2
63 1 0 0 0 0 0 19 16 3 0 0 0 0 0 13 1 65 242 478 447 414 505 510 505 585 613 566 418 291 239 68 97 288 273 233 235 88 19 0 0 3 8 18
12 12 0 0 5 4 0 0 10 6 0 0 0 0 12 10 0 0 257 428 420 432 447 449 514 575 476 466 330 204 157 39 199 278 324 313 212 123 13 2 8 63 45 23
6 11 84 7 22 34 1 2 25 18 0 0 0 7 0 0 7 214 352 473 422 455 432 453 505 502 475 349 334 160 43 57 196 333 351 231 118 33 7 0 26 26 57 81
16 2 8 12 23 57 0 16 36 23 0 0 0 0 0 83 365 308 398 494 411 466 476 486 475 526 443 293 266 40 23 68 286 392 384 196 112 15 2 0 4 27 60 93
0 1 20 25 35 29 160 219 138 170 0 63 64 16 24 61 157 159 272 406 452 495 508 508 478 513 413 333 142 0 20 162 301 517 391 199 184 5 0 0 0 15 14 27
0 0 0 1 4 52 174 52 18 63 90 123 84 55 60 35 117 12 259 368 468 502 460 508 465 482 422 281 4 0 56 191 232 496 278 163 59 2 7 0 0 16 6 30
0 0 0 0 0 44 1 34 43 43 90 128 87 151 99 0 0 145 269 356 395 418 447 515 463 490 402 160 0 0 74 179 245 242 287 158 24 60 54 1 8 27 14 33
0 0 0 0 0 0 0 9 151 214 93 98 98 143 92 111 93 163 227 371 414 546 484 510 478 506 328 174 12 0 26 82 212 223 250 195 76 66 41 55 32 37 53 54
0 1 0 0 0 0 0 138 45 18 106 102 96 68 75 53 108 175 148 329 505 552 488 482 494 442 289 227 9 0 0 1 79 181 172 164 134 76 47 150 113 73 50 23
0 0 0 0 0 0 0 0 38 56 113 56 29 50 4 13 154 144 92 241 539 650 476 462 481 369 300 310 65 0 0 5 34 175 203 183 389 324 302 345 276 149 14 19
0 0 1 0 0 0 0 27 10 23 12 22 40 22 16 4 76 321 390 330 524 687 657 505 417 384 388 374 109 0 0 0 110 199 223 335 515 409 401 459 338 48 15 8
0 0 0 0 0 0 0 0 15 0 0 0 0 0 3 22 71 266 514 542 549 616 639 743 473 444 420 440 247 0 0 0 209 232 233 371 357 371 506 472 336 171 0 6
0 0 0 0 0 0 0 0 0 0 3 0 1 0 5 7 32 190 530 526 572 666 721 665 774 663 457 457 433 0 0 6 184 234 215 363 406 342 394 403 327 277 161 33

GFSCGP_con_mucape_033.txt.gz
CAPE
0 0 0 0 0 0 0 0 0 0 0 0 0 0 0 0 0 0 0 0 0 0 0 0 0 0 0 0 0 0 0 59 483 935 1051 1053 1075 1156 1211 1276 1247 1194 1258 1183
0 0 0 0 0 0 0 0 0 0 0 0 0 0 0 0 0 0 0 0 0 0 0 0 0 0 0 0 0 0 0 161 475 699 887 964 1069 1191 1321 1382 1352 1486 1254 1238
0 0 0 0 0 0 0 0 0 0 0 0 0 0 0 0 0 0 0 0 0 0 0 0 0 0 0 0 0 0 3 389 794 864 1146 1220 1182 1349 1381 1397 1355 1091 1034 1063
0 0 0 0 0 0 0 0 0 0 0 0 0 0 0 0 0 0 0 0 0 0 0 0 0 0 0 0 4 211 518 899 1143 1188 1253 1331 1349 1355 1353 1316 1279 1261 1054 357
0 0 0 0 0 0 0 0 0 0 0 0 0 0 0 0 0 0 0 0 0 0 0 0 0 0 0 4 430 959 1113 1322 1463 1497 1367 1356 1359 1393 1369 1287 1259 824 351 359
0 0 0 0 0 0 0 0 0 0 0 0 0 0 0 0 0 0 0 0 0 0 0 0 0 0 0 235 1028 1371 1502 1624 1687 1721 1679 1595 1494 1405 1321 1221 386 255 373 514
12 0 0 0 0 0 0 0 0 0 0 0 0 0 0 0 0 0 0 0 0 0 0 0 0 12 260 1069 1469 1527 1682 1806 1907 1852 1732 1587 1462 1361 852 199 223 306 312 339
0 1 0 28 7 0 0 0 0 0 0 0 0 0 0 0 0 0 0 0 0 0 0 0 6 236 688 1414 1680 1809 1900 1939 1838 1620 1458 1245 727 290 282 250 264 275 206 136
12 0 13 11 46 9 0 0 0 0 0 0 0 0 0 0 0 0 0 0 0 0 0 75 293 587 789 1082 1454 1724 1733 1622 1407 1153 910 536 478 199 208 201 181 138 56 86
0 0 0 5 0 13 0 0 0 0 0 0 0 0 0 0 0 0 0 0 0 3 151 353 595 722 845 1039 1197 1387 1393 1262 1056 772 411 154 154 142 122 86 31 1 19 0
0 0 0 0 0 0 1 0 0 0 0 0 0 0 0 0 0 0 0 0 0 90 276 524 703 762 955 1107 1084 975 847 729 347 216 106 123 155 153 92 30 0 1 0 2
0 0 0 0 0 0 0 0 0 0 0 0 0 0 0 0 0 0 0 0 0 192 392 632 732 778 824 865 847 739 558 202 103 78 102 128 134 86 15 0 0 4 0 2
6 0 0 0 1 2 2 1 0 0 0 0 0 0 0 0 0 0 91 81 165 375 532 673 732 651 654 626 520 336 186 87 75 84 97 79 118 82 12 0 0 0 0 0
59 1 0 0 0 0 0 1 28 1 0 0 0 0 0 0 0 0 8 154 267 484 593 664 612 519 576 449 245 164 62 70 97 94 97 104 133 89 28 0 0 0 0 0
12 2 0 0 0 3 7 0 0 0 0 0 0 0 0 0 6 10 1 162 393 529 548 597 485 458 550 376 191 123 16 26 114 126 141 121 149 79 11 0 0 12 14 16
30 0 0 0 0 0 6 0 0 0 0 0 0 0 0 0 0 10 0 155 401 484 543 535 450 518 545 303 204 99 65 4 78 207 203 205 198 97 11 0 19 28 19 27
0 0 0 0 0 17 0 5 0 0 0 0 0 0 0 0 2 78 83 169 384 475 532 479 457 537 454 295 193 98 110 16 105 245 257 254 131 35 0 0 17 19 28 67
0 0 0 0 3 0 22 142 22 0 0 1 0 0 0 0 10 223 372 316 410 512 538 467 480 460 385 275 206 100 47 27 148 335 264 98 37 2 0 0 11 17 22 26
0 0 0 9 3 2 83 28 56 5 33 76 96 49 107 52 74 267 471 431 478 527 480 430 471 456 388 237 231 71 14 42 210 315 174 70 12 0 0 0 0 2 3 3
2 0 0 0 4 5 111 27 5 3 46 98 62 106 38 173 151 25 249 447 490 488 448 429 461 464 407 228 182 2 2 70 236 321 72 65 4 0 0 0 0 0 1 8
0 0 0 0 0 0 2 21 8 9 14 50 97 105 138 110 8 107 12 263 428 562 491 423 441 449 439 315 116 0 1 66 160 337 72 64 0 0 0 0 0 2 2 11
0 1 0 1 16 12 0 0 55 0 41 70 145 177 165 59 0 166 115 123 169 369 494 443 469 463 475 348 9 0 0 45 115 225 128 78 9 0 0 1 21 21 18 11
0 0 0 0 0 0 0 0 36 25 62 0 99 97 237 224 143 121 164 112 367 507 491 447 505 477 501 319 13 0 0 16 130 202 183 144 78 32 6 26 26 13 2 7
0 0 1 0 0 0 0 11 34 25 28 37 91 89 224 177 106 223 209 74 542 635 546 488 517 482 494 259 89 0 0 0 34 195 183 146 127 65 102 110 86 57 8 11
0 0 0 0 0 0 0 12 46 48 3 5 66 48 112 336 155 80 229 167 437 469 388 453 494 494 460 322 146 0 0 0 7 82 183 182 170 217 214 240 203 22 0 26
0 0 0 0 0 0 0 0 0 1 5 23 22 17 7 78 280 177 125 158 457 508 625 487 496 525 414 399 179 0 0 0 0 72 192 236 309 285 291 275 223 49 0 2